Overview Statistics Trail Chart Weather Telemetry Raw packets
 

This is the latest recevied weather packets stored in our database for station/object VK4CWL-13. If no packets are shown the sender has not sent any weather packets the latest 10 day(s).

<< 85 86 87 88 89 90 91 >>
Time Temp. Humidity Pressure Rain* Wind** Luminosity Snow
1788048185 21.11° C 51% 1027.3 hPa 0 mm - - -
1788047881 21.11° C 51% 1027.3 hPa 0 mm - - -
1788047579 21.11° C 51% 1027.2 hPa 0 mm - - -
1788047277 21.11° C 52% 1027.3 hPa 0 mm - - -
1788046976 20.56° C 52% 1027.1 hPa 0 mm - - -
1788046674 21.11° C 53% 1027.3 hPa 0 mm - - -
1788046370 20.56° C 53% 1027.2 hPa 0 mm - - -
1788046067 20.56° C 53% 1027.2 hPa 0 mm - - -
1788045765 20.56° C 55% 1027.3 hPa 0 mm - - -
1788045463 20° C 56% 1027.3 hPa 0 mm - - -
1788045161 20° C 58% 1027.4 hPa 0 mm - - -
1788044859 20° C 59% 1027.4 hPa 0 mm - - -
1788044556 19.44° C 62% 1027.7 hPa 0 mm - - -
1788044254 19.44° C 64% 1027.8 hPa 0 mm - - -
1788043952 19.44° C 64% 1027.6 hPa 0 mm - - -
1788043650 18.89° C 65% 1027.6 hPa 0 mm - - -
1788043347 18.33° C 67% 1027.7 hPa 0 mm - - -
1788043044 18.33° C 66% 1027.6 hPa 0 mm - - -
1788042742 18.33° C 67% 1027.6 hPa 0 mm - - -
1788042440 17.78° C 68% 1027.7 hPa 0 mm - - -
1788042140 17.78° C 68% 1027.5 hPa 0 mm - - -
1788041836 17.22° C 70% 1027.7 hPa 0 mm - - -
1788041533 17.22° C 70% 1027.6 hPa 0 mm - - -
1788041231 16.67° C 72% 1027.6 hPa 0 mm - - -
1788040929 16.11° C 73% 1027.6 hPa 0 mm - - -

* Rain since midnight (hover to see other rain measurements)
** Current wind speed in m/s (hover to see current wind gust speed)